Home > Weather > Ocala > Past weeks

Flag for USA Past Weather in Ocala, Florida, USA — Yesterday and Last 2 Weeks

Now
91 °F

Scattered clouds.


Feels Like: 97 °F
Forecast: 73 / 88 °F
Wind: 12 mph from Northeast

Location: Ocala Municipal

Current Time: Aug 25, 2016 at 6:11:51 PM

Latest Report: Aug 25, 2016 at 4:50 PM


Visibility: 10 mi

Pressure: 30.00 "Hg

Humidity: 49%

Dew Point: 70 °F

Location of OcalaLocation

Past Weather in Ocala — Graph

°F

Ocala Temperature Yesterday

Maximum temperature yesterday: 93 °F (at 3:50 PM)
Minimum temperature yesterday: 75 °F (at 4:15 AM)
Average temperature yesterday: 81 °F

High & Low Weather Summary for the Past Weeks

 TemperatureHumidityPressure
High97 °F (Aug 22, 4:50 PM)94% (Aug 11, 1:15 AM)30.20 "Hg (Aug 11, 1:15 AM)
Low72 °F (Aug 11, 5:35 AM)44% (Aug 22, 4:50 PM)29.93 "Hg (Aug 20, 4:50 PM)
Average78 °F81%30.09 "Hg
* Reported Aug 10 4:50 PM — Aug 25 4:50 PM, Ocala, Weather by CustomWeather, © 2016

Note: Actual official high and low records may vary slightly from our data, if they occured in-between our weather recording intervals... More about our weather records

Advertising

Ocala Weather History for the Previous 24 Hours

Scroll right to see more
 ConditionsComfort  
Time TempWeatherWind HumidityBarometerVisibility
4:50 PM
Thu, Aug 25
91 °FScattered clouds.12 mph49%30.00 "Hg10 mi
3:50 PM88 °FScattered clouds.6 mph55%30.02 "Hg10 mi
2:50 PM90 °FScattered clouds.6 mph46%30.05 "Hg10 mi
1:50 PM90 °FScattered clouds.12 mph52%30.07 "Hg10 mi
12:50 PM90 °FScattered clouds.6 mph52%30.08 "Hg10 mi
11:50 AM88 °FScattered clouds.8 mph55%30.10 "Hg10 mi
10:50 AM86 °FScattered clouds.8 mph66%30.10 "Hg10 mi
9:50 AM82 °FScattered clouds.5 mph74%30.11 "Hg10 mi
8:50 AM79 °FScattered clouds.5 mph79%30.11 "Hg10 mi
7:50 AM75 °FPassing clouds.No wind83%30.10 "Hg10 mi
6:50 AM75 °FClear.No wind83%30.07 "Hg10 mi
6:35 AM75 °FClear.No wind83%30.07 "Hg10 mi
6:15 AM75 °FClear.No wind83%30.06 "Hg10 mi
5:55 AM75 °FClear.No wind83%30.06 "Hg10 mi
5:35 AM75 °FClear.No wind83%30.06 "Hg10 mi
5:15 AM75 °FClear.No wind83%30.06 "Hg10 mi
4:55 AM75 °FClear.No wind83%30.06 "Hg10 mi
4:35 AM77 °FClear.3 mph83%30.05 "Hg10 mi
4:15 AM77 °FClear.5 mph83%30.05 "Hg10 mi
3:55 AM77 °FClear.3 mph83%30.05 "Hg10 mi
3:35 AM77 °FClear.5 mph83%30.06 "Hg10 mi
3:15 AM77 °FClear.3 mph79%30.07 "Hg10 mi
2:55 AM77 °FClear.3 mph79%30.07 "Hg10 mi
2:35 AM75 °FClear.No wind83%30.08 "Hg10 mi
2:15 AM77 °FPassing clouds.No wind79%30.08 "Hg10 mi
1:55 AM77 °FPassing clouds.No wind79%30.08 "Hg10 mi
1:35 AM77 °FPassing clouds.3 mph79%30.09 "Hg10 mi
1:15 AM79 °FPassing clouds.No wind74%30.09 "Hg10 mi
12:55 AM79 °FPassing clouds.3 mph74%30.10 "Hg10 mi
12:15 AM79 °FClear.5 mph74%30.11 "Hg10 mi
11:55 PM
Wed, Aug 24
79 °FClear.No wind74%30.11 "Hg10 mi
11:35 PM79 °FClear.5 mph74%30.12 "Hg10 mi
11:15 PM79 °FClear.3 mph70%30.12 "Hg10 mi
10:55 PM79 °FClear.5 mph70%30.12 "Hg10 mi
10:35 PM79 °FClear.5 mph65%30.13 "Hg10 mi
10:15 PM81 °FClear.5 mph62%30.13 "Hg10 mi
9:55 PM81 °FClear.6 mph62%30.13 "Hg10 mi
9:35 PM81 °FClear.5 mph62%30.13 "Hg10 mi
8:55 PM82 °FSunny.6 mph58%30.13 "Hg10 mi
8:35 PM82 °FSunny.5 mph58%30.12 "Hg10 mi
8:15 PM84 °FSunny.6 mph55%30.12 "Hg10 mi
7:55 PM84 °FSunny.8 mph55%30.11 "Hg10 mi
6:50 PM88 °FPassing clouds.9 mph49%30.09 "Hg10 mi
Weather by CustomWeather, © 2016

See weather overviewHow to use our weather pages